[[{"header":{"parameterUnit":"m.s-1","parameterCategory":1,"la1":30.2992,"la2":30.254,"lo1":-89.0895,"lo2":-89.0443,"dy":0.0025,"dx":0.0025,"nx":19,"ny":19,"refTime":"2026-05-23T21:00:00:Z","depth":0,"parameterNumber":2,"parameterNumberName":"U-component_of_WINDS"},"data":[0,0,0,-0.6115,-0.6118,-0.6282,-0.6283,-0.6471,-0.6472,0,0,0,0,0,0,0,0,0,0,0,-0.605,-0.6051,-0.6115,-0.6118,-0.6282,-0.6283,-0.6471,-0.6472,0,0,0,0,0,0,0,0,0,0,0,-0.605,-0.6051,-0.6051,-0.6119,-0.6282,-0.6283,-0.647,-0.6355,0,0,0,0,0,0,0,0,0,0,-0.62,-0.6123,-0.605,-0.6051,-0.612,-0.6282,-0.6283,-0.635,-0.6362,-0.6386,0,-0.6401,0,-0.6439,-0.6483,-0.6484,0,0,0,-0.6131,-0.6113,-0.6171,-0.6051,-0.6121,-0.6281,-0.6212,-0.6357,-0.6371,-0.6403,-0.6404,-0.6411,-0.6442,-0.6484,-0.6485,-0.6575,-0.6575,0,0,-0.6122,-0.6072,-0.6162,-0.618,-0.615,-0.6206,-0.6217,-0.6366,-0.6365,-0.6405,-0.6416,-0.6445,-0.6486,-0.6487,-0.6575,-0.6575,0,0,0,-0.6087,-0.6064,-0.612,-0.6171,-0.6202,-0.6211,-0.6223,-0.6358,-0.6381,-0.6419,-0.6448,-0.6486,-0.6488,-0.6575,-0.6575,-0.6515,0,0,0,-0.6082,-0.6044,-0.6116,-0.6086,-0.6199,-0.6282,-0.6211,-0.637,-0.6389,-0.6447,-0.6487,-0.649,-0.6576,-0.6575,-0.6517,-0.6496,0,0,0,-0.6045,-0.604,-0.6058,-0.6083,-0.6152,-0.6281,-0.6312,-0.6375,-0.6406,-0.6484,-0.649,-0.6576,-0.6575,-0.6519,-0.6499,-0.6504,0,0,0,-0.5991,-0.6004,-0.6056,-0.6083,-0.615,-0.6241,-0.6311,-0.6383,-0.6443,-0.6487,-0.6576,-0.6575,-0.652,-0.6501,-0.6506,-0.6498,-0.649,0,0,-0.5979,-0.6001,-0.602,-0.6072,-0.6141,-0.6221,-0.6283,-0.6387,-0.6442,-0.6528,-0.6531,-0.6517,-0.6499,-0.6504,-0.6465,-0.6458,0,0,0,-0.6,-0.6013,-0.6042,-0.6095,-0.6174,-0.624,-0.634,-0.6379,-0.6454,-0.6475,-0.6522,-0.6513,-0.6518,-0.6517,-0.6511,-0.6519,-0.6572,-0.6572,-0.6572,-0.5911,-0.5979,-0.6016,-0.6104,-0.6155,-0.6257,-0.6306,-0.6377,-0.6432,-0.6442,-0.6468,-0.6435,-0.6432,-0.6428,-0.6435,-0.647,-0.647,-0.647,-0.647,-0.59,-0.5929,-0.6001,-0.6063,-0.6136,-0.619,-0.629,-0.6327,-0.639,-0.6422,-0.643,-0.6458,-0.6419,-0.6429,-0.6466,-0.6466,-0.6467,-0.6467,-0.6468,-0.5848,-0.5874,-0.592,-0.6004,-0.6062,-0.6153,-0.6208,-0.6274,-0.6337,-0.6344,-0.6379,-0.638,-0.6389,-0.6356,-0.6356,-0.6356,-0.6356,-0.6356,-0.6356,-0.5776,-0.583,-0.5867,-0.5951,-0.5995,-0.606,-0.6164,-0.621,-0.6277,-0.6321,-0.6321,-0.6375,-0.6402,-0.6406,-0.6354,-0.6355,-0.6355,-0.6355,-0.6355,-0.5739,-0.5758,-0.5815,-0.5858,-0.5963,-0.6016,-0.61,-0.6186,-0.6234,-0.626,-0.6313,-0.6322,-0.6349,-0.6354,-0.6359,-0.6298,-0.6298,-0.6298,-0.6298,-0.5695,-0.5715,-0.5788,-0.5853,-0.5924,-0.6004,-0.607,-0.6152,-0.624,-0.6274,-0.6293,-0.6305,-0.6307,-0.6334,-0.6339,-0.6344,-0.6281,-0.6281,-0.6281,-0.5676,-0.5705,-0.5747,-0.583,-0.5918,-0.5992,-0.6056,-0.6129,-0.6234,-0.6282,-0.6303,-0.6303,-0.6323,-0.6326,-0.6373,-0.638,-0.6391,0,0]},{"header":{"parameterUnit":"m.s-1","parameterCategory":1,"la1":30.2992,"la2":30.254,"lo1":-89.0895,"lo2":-89.0443,"dy":0.0025,"dx":0.0025,"nx":19,"ny":19,"refTime":"2026-05-23T21:00:00:Z","depth":0,"parameterNumber":3,"parameterNumberName":"V-component_of_WINDS"},"data":[0,0,0,4.5223,4.5224,4.5266,4.5266,4.5334,4.5334,0,0,0,0,0,0,0,0,0,0,0,4.5219,4.522,4.5223,4.5224,4.5266,4.5266,4.5334,4.5334,0,0,0,0,0,0,0,0,0,0,0,4.5219,4.522,4.5221,4.5224,4.5266,4.5267,4.5333,4.5296,0,0,0,0,0,0,0,0,0,0,4.5253,4.5259,4.522,4.5221,4.5225,4.5266,4.5267,4.5294,4.5299,4.5321,0,4.5343,0,4.534,4.534,4.534,0,0,0,4.5217,4.5256,4.5259,4.5221,4.5225,4.5266,4.5245,4.5297,4.5302,4.5326,4.5344,4.5346,4.5341,4.534,4.5341,4.5493,4.5494,0,0,4.5215,4.5232,4.5256,4.5263,4.5258,4.5244,4.5247,4.5299,4.5319,4.5344,4.5348,4.5342,4.5341,4.5342,4.5492,4.5494,0,0,0,4.5213,4.523,4.5232,4.526,4.5267,4.5245,4.5249,4.5317,4.5316,4.5348,4.5343,4.5341,4.5342,4.5491,4.5493,4.5562,0,0,0,4.5211,4.5229,4.5231,4.5242,4.5266,4.5293,4.5265,4.5313,4.5318,4.5343,4.5341,4.5343,4.549,4.5492,4.5557,4.5591,0,0,0,4.5214,4.5229,4.5239,4.5243,4.5262,4.5292,4.5294,4.5313,4.5316,4.534,4.5343,4.5489,4.5492,4.5554,4.5585,4.5637,0,0,0,4.5221,4.5299,4.524,4.5325,4.5262,4.5335,4.5293,4.5346,4.5375,4.5342,4.549,4.5493,4.5552,4.5581,4.5633,4.5683,4.5706,0,0,4.5328,4.5312,4.5361,4.531,4.5398,4.5327,4.5424,4.5434,4.542,4.5469,4.5473,4.5559,4.5584,4.5636,4.5829,4.5847,0,0,0,4.5401,4.5436,4.5455,4.5485,4.5496,4.5507,4.5501,4.5505,4.5546,4.5449,4.5591,4.5606,4.5635,4.5659,4.5674,4.5698,4.5504,4.5504,4.5504,4.5577,4.5556,4.5635,4.562,4.5649,4.5643,4.5664,4.5668,4.5637,4.5671,4.5686,4.5806,4.5834,4.5845,4.5871,4.5711,4.5711,4.5711,4.5712,4.5732,4.5779,4.5738,4.58,4.5778,4.5829,4.5826,4.5803,4.5847,4.5793,4.5818,4.576,4.5866,4.5887,4.5717,4.5716,4.5715,4.5715,4.5714,4.5845,4.5864,4.5868,4.591,4.5944,4.5925,4.597,4.5947,4.5926,4.5951,4.5963,4.5962,4.5958,4.5958,4.5959,4.5959,4.596,4.596,4.596,4.596,4.5963,4.6004,4.6023,4.6039,4.6058,4.6053,4.6068,4.6079,4.6059,4.6059,4.6025,4.5881,4.5845,4.5967,4.5965,4.5965,4.5964,4.5964,4.6125,4.6084,4.6148,4.6165,4.6185,4.6221,4.6192,4.6225,4.6234,4.6257,4.6218,4.6115,4.6096,4.6084,4.6054,4.6222,4.6222,4.6222,4.6222,4.622,4.6209,4.6269,4.6298,4.6323,4.6303,4.6375,4.6372,4.6362,4.6366,4.6339,4.6297,4.6286,4.6274,4.6257,4.6229,4.6438,4.6438,4.6438,4.632,4.6311,4.6377,4.6368,4.6382,4.6395,4.6462,4.6495,4.6475,4.6447,4.6369,4.636,4.6293,4.6272,4.6241,4.6216,4.6163,0,0]}]]